Snowfall_Accumulation
0.3 0.3 0.2 0.2 0.4 0.4 0.3 0.3 0.3 0.3 0.3 0.3 0.6 0.6 0.9 1.0 1.1 1.3 1.4 1.8 2.5 2.6 2.8 2.9 3.9 4.5 4.1 4.2 4.3 4.1 4.6 4.5 3.6 3.7 4.6 5.2 5.9 6.2 7.1 7.5 7.7 8.4
0.3 0.4 0.4 0.5 0.5 0.5 0.5 0.4 0.5 0.5 0.7 0.6 0.6 0.6 0.9 0.7 1.4 1.3 1.6 1.8 2.1 2.4 2.6 3.1 3.0 3.4 3.4 4.1 3.8 4.7 4.2 4.2 5.1 3.5 4.3 4.6 5.0 4.7 5.4 5.5 6.2 6.2
0.7 0.7 0.7 0.9 1.0 1.0 1.0 1.1 1.2 1.2 1.2 1.1 1.1 1.1 1.2 1.0 1.1 1.1 1.3 1.7 2.2 2.8 3.1 4.2 4.6 4.9 5.4 4.7 3.7 3.7 4.1 5.1 5.0 4.5 4.8 4.8 4.3 5.0 4.9 4.7 5.3 5.8
0.8 0.9 1.0 1.2 1.3 1.4 1.4 1.5 1.4 1.6 1.4 1.5 1.5 1.4 1.4 1.6 1.6 1.9 2.0 2.1 2.3 2.4 2.7 3.1 3.6 4.3 4.6 5.0 6.6 6.6 6.3 6.0 5.8 5.6 5.9 6.0 5.8 5.4 5.4 5.0 5.5 5.8
0.9 1.0 1.1 1.2 1.3 1.6 1.6 1.6 1.8 1.9 2.2 2.3 2.4 2.3 2.7 2.6 2.8 2.9 3.0 2.9 2.8 2.9 3.6 3.2 3.1 3.2 3.3 3.5 3.8 4.8 4.8 5.3 5.3 5.3 5.5 5.8 5.6 5.7 5.9 6.1 6.7 7.0
1.5 1.5 1.8 2.0 1.8 2.0 2.3 2.6 2.4 2.5 3.1 2.8 2.6 2.3 2.6 2.7 2.9 3.0 3.2 3.4 3.3 3.3 3.4 5.0 4.0 3.8 4.2 3.7 3.8 3.9 4.2 4.2 4.4 4.7 5.6 6.3 6.3 6.0 6.1 6.2 6.6 6.9
2.5 2.7 2.7 3.3 3.0 3.2 3.5 3.5 3.4 3.6 3.3 3.2 3.6 3.6 2.8 2.9 2.9 3.2 3.4 3.5 3.8 4.0 4.1 4.9 4.6 4.9 4.3 4.6 5.0 5.0 5.1 5.1 5.3 5.5 6.0 6.0 5.9 6.3 6.2 7.3 7.8 8.0
3.4 3.5 3.7 3.5 3.7 3.2 3.3 3.5 4.1 4.1 3.8 3.5 4.0 3.1 3.4 3.3 3.4 3.5 3.6 3.7 4.0 4.1 4.1 4.3 5.1 5.3 5.1 5.4 5.8 5.5 5.5 5.4 6.1 6.9 6.8 6.9 6.6 7.1 6.5 6.8 7.5 8.3
3.7 3.8 3.6 3.6 3.8 3.9 4.5 4.6 4.3 4.3 4.1 4.0 3.7 3.6 3.5 3.7 3.7 3.7 3.7 3.8 3.9 3.7 3.7 4.1 4.2 4.6 4.4 5.3 6.0 6.1 6.1 5.9 5.9 6.3 6.8 7.1 7.1 7.0 6.8 6.7 7.7 8.3
3.9 3.8 3.8 4.0 4.6 4.3 4.3 4.2 4.9 4.3 4.3 4.4 4.5 4.4 4.6 4.2 4.0 3.9 4.1 4.0 4.3 4.4 4.7 4.3 4.3 4.1 4.2 4.7 5.0 5.0 5.6 6.1 5.7 5.7 6.1 6.7 7.2 7.2 7.2 7.7 8.5 9.1
4.7 4.6 4.8 4.8 4.9 4.8 4.8 4.7 5.3 4.8 4.6 5.5 5.1 5.4 6.1 5.2 5.0 4.6 4.9 5.0 5.1 4.9 4.7 4.6 4.6 4.4 4.6 4.7 4.6 4.5 4.9 5.2 5.6 6.0 6.2 6.5 6.6 7.0 7.5 8.1 8.6 8.9
4.8 4.8 4.9 4.9 4.9 5.3 5.0 4.9 5.0 5.2 5.2 5.7 6.3 5.4 5.8 5.5 5.7 5.6 5.5 5.3 5.1 5.0 4.9 5.3 4.9 5.0 5.2 5.8 5.1 4.7 4.7 4.7 4.9 5.1 5.1 5.5 5.8 6.2 6.4 7.0 7.8 7.9
4.7 4.8 4.8 4.8 4.9 5.0 5.1 5.3 5.2 5.1 5.3 5.6 5.6 6.0 6.6 6.7 6.6 6.1 5.9 5.8 5.7 5.5 5.5 5.4 5.3 5.1 5.3 5.4 5.3 5.2 5.4 5.5 5.5 5.4 5.3 5.2 5.3 5.2 5.0 5.3 5.9 6.3
5.1 4.9 4.8 4.9 5.0 5.7 5.0 5.1 5.2 5.4 5.7 5.7 6.1 6.5 7.1 7.0 7.0 6.2 5.7 5.4 5.7 5.6 5.3 5.2 5.3 5.2 5.2 5.7 5.7 5.6 5.9 6.2 6.1 6.8 6.8 6.2 5.5 4.9 4.8 5.2 5.1 5.1
5.1 4.9 5.0 5.3 5.0 5.3 5.4 5.4 5.4 5.7 5.4 5.7 6.2 6.8 6.3 6.3 6.4 6.0 5.9 5.9 5.3 5.2 5.5 5.0 5.3 5.3 5.3 6.5 6.7 6.7 7.2 8.9 8.8 9.1 8.5 8.1 7.5 6.9 6.0 5.5 5.3 5.1
5.0 5.1 5.2 5.6 5.6 5.8 5.4 5.1 5.1 5.3 5.7 5.6 6.2 6.2 6.3 5.6 5.9 5.9 6.3 7.6 6.0 5.6 5.3 5.8 5.4 5.1 5.2 7.1 7.0 10.6 13.3 14.3 14.7 14.2 13.5 13.1 12.5 11.1 9.3 7.7 6.8 6.0
5.2 5.5 5.3 5.4 5.3 5.1 5.1 5.3 5.3 5.4 5.5 5.9 5.8 5.9 6.2 6.7 6.4 7.1 6.7 6.5 6.2 6.3 6.7 6.4 6.1 5.4 5.2 8.0 11.9 15.3 18.2 20.3 19.9 17.9 15.4 14.1 12.9 12.0 10.9 8.3 6.8 5.9
5.1 5.1 5.2 5.2 5.1 5.1 5.2 5.5 5.2 5.6 5.8 5.8 6.6 6.2 6.6 6.5 7.6 7.9 6.6 6.2 6.4 6.6 6.9 6.6 6.6 5.4 6.1 11.6 14.2 18.8 24.5 25.5 23.4 21.2 18.2 15.8 13.9 12.9 11.4 10.1 8.8 7.8
4.7 5.1 5.2 5.2 5.2 5.9 5.3 5.6 5.9 6.1 6.1 6.3 6.5 6.5 6.9 7.8 8.3 7.3 7.1 7.2 7.4 8.3 7.7 7.1 7.1 5.9 7.5 12.1 15.5 21.6 26.8 30.3 26.1 22.3 19.6 16.2 13.5 12.1 11.0 9.9 9.1 9.5
4.4 4.8 5.1 5.0 5.0 4.9 5.0 5.5 5.8 6.3 6.2 6.6 6.8 6.9 7.8 8.4 8.0 8.4 8.2 8.9 9.3 9.8 9.4 9.1 8.5 7.3 8.2 13.8 19.7 23.9 29.2 34.5 28.7 24.6 20.3 16.9 14.0 11.9 10.4 9.4 8.8 9.0
4.4 5.0 5.5 4.9 4.7 4.7 5.1 5.5 5.9 6.0 6.1 6.4 7.1 7.9 8.9 9.8 9.7 9.8 9.9 10.3 10.5 11.6 11.6 11.4 9.7 8.1 11.2 17.3 21.3 25.4 29.9 36.7 31.2 25.2 20.0 15.9 12.7 11.0 10.4 9.6 8.8 8.5
4.5 4.9 4.9 5.0 5.0 5.3 6.1 6.3 6.1 6.2 7.1 6.8 7.7 8.2 8.6 9.0 8.5 8.6 9.2 9.3 9.1 9.8 11.0 10.9 8.6 8.0 12.4 17.4 20.0 25.4 32.6 32.7 31.1 25.0 20.0 15.7 12.5 10.3 9.4 8.4 7.9 8.4
4.6 5.0 5.3 5.2 5.4 6.0 6.2 6.2 6.4 6.3 6.2 6.4 7.9 7.5 7.3 7.0 7.2 6.9 7.3 8.2 8.5 8.8 9.3 8.7 8.0 7.9 10.0 15.6 18.0 23.6 34.9 38.0 33.7 26.2 20.1 16.1 12.2 10.1 9.2 8.4 7.8 7.9
4.3 4.9 5.8 5.7 6.0 6.4 6.0 5.6 5.3 5.6 6.1 6.0 7.6 7.6 7.5 7.0 6.7 7.2 7.2 7.6 8.4 8.6 8.5 9.0 8.1 7.2 8.7 13.1 16.7 22.0 31.8 35.9 34.0 29.8 22.9 17.5 14.3 11.6 10.3 9.7 8.0 8.0
4.7 4.9 5.5 6.0 6.5 6.0 5.7 5.9 5.9 6.0 6.0 6.4 7.0 7.2 7.2 6.5 6.9 7.6 7.4 7.4 7.5 7.7 7.5 8.7 8.6 7.5 7.6 11.6 15.2 22.8 28.9 33.0 32.9 29.2 25.7 19.6 16.1 14.0 10.9 9.3 8.0 7.1
4.6 5.2 5.5 6.3 6.7 6.2 5.7 6.1 6.2 6.6 6.4 7.0 6.9 6.5 6.7 6.3 6.6 6.7 7.0 6.9 6.9 8.1 8.7 8.6 8.8 8.2 8.2 9.1 17.0 24.4 26.1 28.7 30.7 29.8 27.9 22.6 18.8 16.0 15.3 12.8 10.1 8.9